Perry, IA

6:02 PM CDT on October 17, 2017 (GMT -0500)
Perry Municipal

Weather History for KPRO - April, 2013

Change the Weather History Date:

Friday, April 26, 2013

  Actual Average Record
Temperature  
Mean Temperature 57 °F -  
Max Temperature 68 °F 67 °F 89 °F (1981)
Min Temperature 46 °F 42 °F 27 °F (1950)
Degree Days  
Heating Degree Days 8    
Growing Degree Days 7 (Base 50)    
Moisture  
Dew Point 41 °F    
Average Humidity 56    
Maximum Humidity 84    
Minimum Humidity 39    
Precipitation  
Precipitation 0.00 in - - ()
Sea Level Pressure  
Sea Level Pressure 30.12 in    
Wind  
Wind Speed 15 mph (South)    
Max Wind Speed 29 mph    
Max Gust Speed 34 mph    
Visibility 10 miles    
Events      
Averages and records for this station are not official NWS values.
T = Trace of Precipitation, MM = Missing Value Source: NWS Daily Summary

Daily Weather History Graph

Daily Weather History Graph

Search for Another Location

Airport or City:

Trip Planner

Search our weather history database for the weather conditions in past years. The results will help you decide how hot, cold, wet, or windy it might be!

Date:

Astronomy

Apr. 26, 2013 Rise Set
Actual Time 6:19 AM CDT 8:09 PM CDT
Civil Twilight 5:49 AM CDT 8:39 PM CDT
Nautical Twilight 5:13 AM CDT 9:16 PM CDT
Astronomical Twilight 4:34 AM CDT 9:55 PM CDT
Moon 9:34 PM CDT (4/26) 6:46 AM CDT (4/26)
Length of Visible Light 14h 50m
Length of Day
13h 50m
Full, 99% of the Moon is Illuminated
Apr 26
Full
May 2
Last Quarter
May 9
New
May 17
First Quarter
May 24
Full

Hourly Weather History & Observations

Time (CDT) Temp. Dew Point Humidity Pressure Visibility Wind Dir Wind Speed Gust Speed Precip Events Conditions
12:15 AM 50.0 °F 34.7 °F 56% 30.12 in 10.0 mi SSE 12.7 mph - N/A   Clear
12:35 AM 49.3 °F 35.1 °F 58% 30.11 in 10.0 mi SSE 12.7 mph - N/A   Clear
12:55 AM 49.5 °F 35.6 °F 59% 30.11 in 10.0 mi SSE 12.7 mph - N/A   Clear
1:15 AM 49.1 °F 35.8 °F 60% 30.11 in 10.0 mi SSE 11.5 mph - N/A   Clear
1:35 AM 48.4 °F 36.1 °F 63% 30.11 in 10.0 mi SSE 11.5 mph - N/A   Clear
1:55 AM 47.7 °F 36.5 °F 65% 30.11 in 10.0 mi SSE 10.4 mph - N/A   Clear
2:15 AM 46.9 °F 36.9 °F 68% 30.11 in 10.0 mi South 11.5 mph - N/A   Clear
2:35 AM 46.8 °F 37.0 °F 69% 30.10 in 10.0 mi South 12.7 mph - N/A   Clear
2:55 AM 47.1 °F 37.4 °F 69% 30.10 in 10.0 mi South 12.7 mph - N/A   Clear
3:15 AM 46.6 °F 37.6 °F 71% 30.09 in 10.0 mi South 11.5 mph - N/A   Clear
3:35 AM 46.9 °F 37.8 °F 70% 30.09 in 10.0 mi South 10.4 mph - N/A   Clear
3:55 AM 47.3 °F 38.1 °F 70% 30.09 in 10.0 mi South 12.7 mph - N/A   Clear
4:15 AM 47.5 °F 38.3 °F 70% 30.08 in 10.0 mi South 11.5 mph - N/A   Clear
4:35 AM 47.3 °F 37.8 °F 69% 30.08 in 10.0 mi South 10.4 mph - N/A   Clear
4:55 AM 47.3 °F 37.4 °F 68% 30.07 in 10.0 mi South 11.5 mph - N/A   Clear
5:15 AM 47.7 °F 37.4 °F 68% 30.07 in 10.0 mi South 9.2 mph - N/A   Clear
5:35 AM 48.4 °F 37.6 °F 66% 30.07 in 10.0 mi South 11.5 mph - N/A   Clear
5:55 AM 49.3 °F 37.8 °F 65% 30.06 in 10.0 mi South 12.7 mph - N/A   Clear
6:15 AM 48.7 °F 37.9 °F 66% 30.06 in 10.0 mi South 12.7 mph - N/A   Clear
6:55 AM 49.5 °F 38.3 °F 65% 30.07 in 10.0 mi South 13.8 mph - N/A   Clear
7:15 AM 50.4 °F 38.3 °F 63% 30.09 in 10.0 mi South 13.8 mph - N/A   Clear
7:35 AM 51.3 °F 38.3 °F 61% 30.09 in 10.0 mi South 13.8 mph - N/A   Clear
7:55 AM 53.4 °F 38.7 °F 57% 30.09 in 10.0 mi South 16.1 mph - N/A   Clear
8:15 AM 55.4 °F 38.3 °F 53% 30.09 in 10.0 mi South 19.6 mph 25.3 mph N/A   Clear
8:35 AM 56.5 °F 38.1 °F 50% 30.08 in 10.0 mi SSW 23.0 mph 27.6 mph N/A   Clear
8:55 AM 57.2 °F 38.5 °F 50% 30.09 in 10.0 mi SSW 20.7 mph 25.3 mph N/A   Clear
9:15 AM 59.4 °F 38.8 °F 47% 30.09 in 10.0 mi South 21.9 mph 27.6 mph N/A   Clear
9:35 AM 61.3 °F 39.2 °F 44% 30.09 in 10.0 mi SSW 25.3 mph 29.9 mph N/A   Clear
9:55 AM 62.1 °F 39.6 °F 44% 30.09 in 10.0 mi SSW 27.6 mph 34.5 mph N/A   Clear
10:15 AM 61.9 °F 39.9 °F 44% 30.09 in 10.0 mi SSW 28.8 mph - N/A   Clear
10:35 AM 63.7 °F 40.3 °F 42% 30.10 in 10.0 mi SSW 24.2 mph 32.2 mph N/A   Clear
10:55 AM 64.0 °F 41.2 °F 43% 30.10 in 10.0 mi SSW 26.5 mph 31.1 mph N/A   Clear
11:15 AM 64.8 °F 41.2 °F 42% 30.11 in 10.0 mi SSW 26.5 mph 32.2 mph N/A   Clear
11:35 AM 66.0 °F 41.9 °F 41% 30.11 in 10.0 mi SSW 21.9 mph 29.9 mph N/A   Clear
11:55 AM 65.8 °F 41.9 °F 42% 30.12 in 10.0 mi SSW 27.6 mph 32.2 mph N/A   Clear
12:15 PM 65.8 °F 42.4 °F 43% 30.12 in 10.0 mi South 27.6 mph 33.4 mph N/A   Clear
12:35 PM 66.2 °F 42.3 °F 42% 30.12 in 10.0 mi SSW 25.3 mph 32.2 mph N/A   Scattered Clouds
12:55 PM 66.9 °F 42.6 °F 41% 30.12 in 10.0 mi South 25.3 mph 29.9 mph N/A   Scattered Clouds
1:15 PM 66.4 °F 43.0 °F 43% 30.12 in 10.0 mi SSW 21.9 mph 32.2 mph N/A   Scattered Clouds
1:35 PM 65.8 °F 42.4 °F 43% 30.11 in 10.0 mi SSW 18.4 mph 27.6 mph N/A   Clear
1:55 PM 66.0 °F 42.4 °F 42% 30.11 in 10.0 mi SSW 21.9 mph 25.3 mph N/A   Clear
2:15 PM 66.9 °F 42.6 °F 41% 30.12 in 10.0 mi SW 19.6 mph 24.2 mph N/A   Scattered Clouds
2:35 PM 67.5 °F 42.6 °F 41% 30.12 in 10.0 mi SW 18.4 mph 25.3 mph N/A   Scattered Clouds
2:55 PM 67.5 °F 41.9 °F 39% 30.13 in 10.0 mi WSW 16.1 mph 23.0 mph N/A   Mostly Cloudy
3:15 PM 66.7 °F 42.6 °F 42% 30.12 in 10.0 mi SSW 15.0 mph 20.7 mph N/A   Mostly Cloudy
3:35 PM 68.4 °F 42.8 °F 40% 30.11 in 10.0 mi SSW 17.3 mph 23.0 mph N/A   Mostly Cloudy
3:55 PM 67.5 °F 43.0 °F 41% 30.11 in 10.0 mi SSW 16.1 mph 19.6 mph N/A   Mostly Cloudy
4:15 PM 68.4 °F 42.3 °F 39% 30.12 in 10.0 mi SW 10.4 mph - N/A   Mostly Cloudy
4:35 PM 67.6 °F 42.6 °F 40% 30.11 in 10.0 mi SSW 11.5 mph - N/A   Mostly Cloudy
4:55 PM 68.2 °F 43.2 °F 40% 30.11 in 10.0 mi SW 13.8 mph 19.6 mph N/A   Mostly Cloudy
5:15 PM 68.0 °F 43.0 °F 40% 30.12 in 10.0 mi SW 11.5 mph 17.3 mph N/A   Mostly Cloudy
5:35 PM 66.6 °F 46.0 °F 48% 30.11 in 10.0 mi SSW 20.7 mph 24.2 mph N/A   Mostly Cloudy
5:55 PM 66.6 °F 45.7 °F 47% 30.11 in 10.0 mi South 19.6 mph - N/A   Scattered Clouds
6:15 PM 66.2 °F 45.5 °F 47% 30.11 in 10.0 mi SSW 21.9 mph - N/A   Clear
6:35 PM 65.3 °F 45.9 °F 49% 30.12 in 10.0 mi South 21.9 mph 25.3 mph N/A   Clear
6:55 PM 63.9 °F 45.5 °F 51% 30.13 in 10.0 mi SSW 19.6 mph 25.3 mph N/A   Clear
7:15 PM 63.0 °F 45.7 °F 53% 30.13 in 10.0 mi South 18.4 mph - N/A   Clear
7:35 PM 61.2 °F 45.5 °F 56% 30.13 in 10.0 mi South 17.3 mph - N/A   Clear
7:55 PM 59.9 °F 45.1 °F 58% 30.14 in 10.0 mi South 13.8 mph - N/A   Clear
8:15 PM 58.5 °F 45.1 °F 61% 30.14 in 10.0 mi South 13.8 mph - N/A   Clear
8:35 PM 57.2 °F 45.5 °F 65% 30.15 in 10.0 mi South 11.5 mph - N/A   Clear
8:55 PM 55.8 °F 45.1 °F 67% 30.16 in 10.0 mi South 10.4 mph - N/A   Clear
9:15 PM 54.7 °F 45.0 °F 70% 30.17 in 10.0 mi South 9.2 mph - N/A   Clear
9:35 PM 53.8 °F 44.8 °F 72% 30.18 in 10.0 mi South 10.4 mph - N/A   Clear
9:55 PM 52.9 °F 44.6 °F 73% 30.18 in 10.0 mi South 9.2 mph - N/A   Clear
10:15 PM 51.8 °F 44.1 °F 75% 30.18 in 10.0 mi South 8.1 mph - N/A   Clear
10:35 PM 50.9 °F 43.7 °F 76% 30.19 in 10.0 mi South 6.9 mph - N/A   Clear
10:55 PM 49.6 °F 43.5 °F 79% 30.19 in 10.0 mi South 8.1 mph - N/A   Clear
11:15 PM 48.6 °F 42.8 °F 80% 30.19 in 10.0 mi South 8.1 mph - N/A   Clear
11:35 PM 48.2 °F 42.8 °F 82% 30.20 in 10.0 mi South 5.8 mph - N/A   Clear
11:55 PM 47.5 °F 42.8 °F 84% 30.20 in 10.0 mi SSW 5.8 mph - N/A   Clear